Location: Beugnon
(47.6222°N, 3.7850°E)
Time: 13:45:59
(UTC+00:00)

STARLINK-1243 - Pass Details

Date: 09 April 2020
Orbit: 549 x 550 km, 53.0° (Epoch: 03 June)

Event Time Altitude Azimuth Distance (km) Brightness Sun altitude
Rises 21:07:20 0° 296° (WNW) 2,723 8.3 -24.2°
Reaches altitude 10° 21:09:38 10° 289° (WNW) 1,826 7.1 -24.5°
Enters shadow 21:12:47 38° 249° (WSW) 853 4.7 -24.9°
